Location: Balzhofen
(48.7131°N, 8.0930°E)
Time: 07:36:52
(UTC+00:00)

Daily predictions for brighter satellites

Satellite Brightness Start Highest point End
(mag) Time Altitude Azimuth Time Altitude Azimuth Time Altitude Azimuth
Okean 2 Rocket 4.4 19:35:12 10° SSW 19:39:31 46° WNW 19:43:51 10° N
MetOp-B 4.2 19:34:16 10° SSE 19:39:37 82° ENE 19:45:01 10° NNW
Cosmos 1459 Rocket 4.3 19:35:20 10° SSW 19:41:31 73° W 19:47:40 10° N
Cosmos 1980 Rocket 3.1 19:37:32 10° NW 19:42:59 47° WSW 19:48:22 10° S
Cosmos 2061 Rocket 4.3 19:37:03 10° SSE 19:43:02 51° E 19:49:06 10° NNE
CZ-4 R/B 2.1 19:40:59 10° S 19:44:29 46° W 19:48:02 10° NNW
USA 186 2.7 19:43:05 10° SE 19:45:26 26° ENE 19:47:49 10° N
Cosmos 2228 2.9 19:41:35 10° S 19:45:37 64° E 19:49:41 10° NNE
COSMOS 2406 3.6 19:40:48 10° S 19:46:09 42° ESE 19:51:31 10° NE
Cosmos 2084 Rocket 4.2 19:43:49 10° NW 19:47:51 46° SW 19:51:55 10° SSE
SL-08 R/B 3.5 19:43:28 10° NNE 19:48:10 51° E 19:52:45 10° S
ISS -3.0 19:46:07 10° W 19:49:25 54° N 19:52:43 10° ENE
Cosmos 1743 3.0 19:46:32 10° NNW 19:49:28 47° W 19:52:22 10° S
Cosmos 1461 3.2 19:46:44 10° S 19:50:05 32° ESE 19:53:25 10° NE
Cosmos 1455 Rocket 3.3 19:45:59 10° SSW 19:50:23 75° W 19:54:47 10° N
Cosmos 1992 Rocket 4.1 19:45:23 10° S 19:50:27 56° ESE 19:55:33 10° NNE
Cosmos 1802 Rocket 4.2 19:45:10 10° SSW 19:51:21 81° W 19:57:30 10° N
Cosmos 1892 Rocket 4.0 19:47:24 10° NNW 19:51:41 62° W 19:55:54 10° S
SKYMED 3 4.3 19:48:06 10° NNE 19:52:03 66° ESE 19:55:59 10° S
Terra 2.0 19:47:51 10° S 19:52:33 76° WSW 19:57:16 10° NNW
Okean O Rocket 1.7 19:52:57 10° SSE 19:57:09 59° ENE 20:01:24 10° N
Cosmos 2333 Rocket 2.6 19:53:31 10° NNW 19:59:08 55° NE 20:04:29 11° SE
NOSS 3-3 (A) 3.7 19:58:50 10° SW 20:04:00 86° SE 20:10:17 10° NE
Cosmos 1544 Rocket 4.0 20:00:06 10° SSE 20:04:11 43° E 20:08:17 10° NNE
Cosmos 1437 Rocket 3.3 20:03:25 10° SSE 20:06:39 34° E 20:09:56 10° NNE
Cosmos 2360 Rocket 3.0 20:03:44 10° NNW 20:09:06 41° NE 20:13:59 12° ESE
Helios 1A Rocket 3.2 20:06:26 10° N 20:09:30 50° WNW 20:12:32 10° SSW
CZ-4B R/B 3.8 20:07:21 10° S 20:12:55 59° WSW 20:18:27 10° NNW
Cosmos 2233 Rocket 4.1 20:08:43 10° S 20:14:55 84° W 20:21:07 10° N
Okean-O 2.6 20:14:57 10° SSE 20:19:19 86° WSW 20:23:43 10° NNW
Cosmos 1486 Rocket 4.5 20:14:37 10° NNW 20:19:45 50° ENE 20:23:55 15° SE
Cosmos 909 Rocket 4.1 20:14:57 10° SW 20:21:15 86° NW 20:27:50 10° NE
Cosmos 2219 Rocket 3.3 20:16:36 10° NNW 20:21:45 34° NE 20:26:24 12° ESE
Cosmos 1758 Rocket 3.5 20:17:20 10° N 20:21:46 83° E 20:25:51 12° SSE
CZ-2C R/B 3.8 20:21:09 14° E 20:22:23 18° ENE 20:24:25 10° NNE
DNEPR-1 R/B 4.4 20:24:09 10° NW 20:29:37 79° NE 20:34:57 16° SE
USA 245 4.3 20:25:40 13° SSE 20:30:51 73° ENE 20:36:20 10° N
Nadezhda 4 Rocket 4.5 20:25:08 10° N 20:30:59 44° ENE 20:35:27 17° SE
Meteor 1-25 Rocket 4.3 20:25:33 10° N 20:31:12 67° ENE 20:35:42 16° SSE
IRS-1C Rocket 4.4 20:27:08 16° SE 20:31:15 54° ENE 20:36:24 10° N
Cosmos 1825 Rocket 4.5 20:30:21 10° N 20:34:21 34° ENE 20:36:52 19° SE
Cosmos 1805 3.4 20:31:51 10° N 20:34:59 41° ENE 20:36:34 23° SE
Cosmos 220 Rocket 3.9 20:32:33 10° S 20:36:31 59° ESE 20:40:34 10° NNE
NOSS 3-3 (C) 4.0 20:31:21 10° SW 20:36:37 73° NW 20:43:01 10° NE
Cosmos 2322 Rocket 2.3 20:36:06 10° NNW 20:41:46 71° ENE 20:45:49 20° SE
USA 306 4.0 20:43:24 10° WNW 20:45:38 20° NNW 20:47:14 10° NE
Cosmos 1602 Rocket 3.5 20:41:23 10° N 20:45:44 84° E 20:48:43 20° SSE
Cosmos 2082 Rocket 3.6 20:40:57 10° WSW 20:46:20 41° NW 20:51:43 10° NNE
NOSS 3-4 (A) 3.8 20:42:32 10° NW 20:49:14 89° NE 20:55:07 19° SE
NOSS 3-4 (C) 3.8 20:43:10 10° NW 20:49:53 89° NE 20:55:45 20° SE
Cosmos 1707 4.4 20:52:04 11° ENE 20:52:04 11° ENE 20:52:38 10° ENE
CZ-4B R/B 2.4 20:49:58 24° S 20:51:55 82° W 20:55:24 10° NNW
Cosmos 2151 3.5 20:51:57 10° NNW 20:55:57 52° W 20:59:05 15° SSW
Cosmos 2098 Rocket 3.0 20:53:24 18° S 20:56:55 69° E 21:01:00 10° NNE
Cosmos 1076 Rocket 4.1 20:54:22 10° N 20:58:26 42° ENE 21:00:20 26° SE
Cosmos 44 4.3 20:53:47 10° NNW 20:58:58 44° NE 21:02:45 17° ESE
Cosmos 2237 Rocket 4.5 20:56:00 10° N 20:59:15 15° NNE 21:02:29 10° ENE
Ariane Rocket 3.0 20:59:02 21° SSE 21:02:27 87° WSW 21:07:34 10° NNW
Cosmos 2278 4.1 21:03:17 10° NW 21:08:53 57° WSW 21:12:37 21° S
SL-16 R/B 3.1 21:07:31 10° NW 21:12:49 42° WSW 21:16:43 17° S
SPOT 3 Rocket 4.0 21:09:24 18° S 21:13:08 56° W 21:18:13 10° NNW
COSMOS 2428 4.0 21:08:35 10° NNW 21:13:36 30° NE 21:17:37 14° ESE
Meteor 1-5 Rocket 4.3 21:07:56 10° NNW 21:13:43 81° W 21:17:38 22° S
Cosmos 1763 Rocket 3.6 21:10:53 21° S 21:14:15 57° ESE 21:19:26 10° NNE
USA 186 4.2 21:13:19 10° SW 21:14:51 14° W 21:16:23 10° WNW
USA 290 2.0 21:18:07 34° SSW 21:19:21 88° WNW 21:22:30 10° NNE
Cosmos 1606 Rocket 3.4 21:17:15 24° S 21:19:48 89° E 21:24:08 10° N
Cosmos 990 Rocket 3.9 21:18:19 10° NNW 21:23:31 79° ENE 21:26:04 31° SSE
Cosmos 1464 Rocket 4.0 21:18:41 16° S 21:23:45 85° W 21:29:59 10° N
Helios 1B rocket 3.6 21:24:22 21° E 21:25:13 24° ENE 21:28:04 10° NNE
CZ-4B R/B 4.0 21:23:15 21° SSW 21:26:11 50° W 21:30:55 10° NNW
ISS -3.2 21:23:11 10° WNW 21:26:30 57° N 21:28:15 25° E
Okean 1 2.9 21:25:54 37° S 21:27:13 87° W 21:30:50 10° N
Cosmos 1726 Rocket 3.2 21:25:49 34° S 21:27:28 78° E 21:31:33 10° NNE
BREEZE-M DEB (TANK) 1.4 21:26:03 10° W 21:28:12 59° NW 21:28:12 59° NW
Okean O Rocket 4.0 21:31:03 10° SW 21:33:43 16° W 21:36:25 10° NW
Cosmos 1536 3.2 21:32:46 10° N 21:36:19 43° ENE 21:36:59 38° ESE
Cosmos-2242 3.0 21:37:47 43° SSE 21:38:49 57° E 21:42:53 10° NNE
Cosmos 1092 Rocket 4.0 21:36:04 10° N 21:42:16 72° E 21:45:20 32° SSE
Cosmos 2333 Rocket 3.6 21:38:19 10° NW 21:43:06 28° WSW 21:46:30 16° SSW
KORONAS-FOTON 4.2 21:43:53 38° E 21:43:53 38° E 21:46:56 10° NNE
Cosmos 2297 Rocket 3.9 21:46:14 16° ESE 21:46:33 16° E 21:49:53 10° ENE
Cosmos 841 Rocket 4.5 21:47:27 28° ESE 21:48:12 29° E 21:52:39 10° NE
Cosmos 1833 4.2 21:44:13 14° SSW 21:49:04 84° WNW 21:54:45 10° NNE
CZ-2C R/B 4.0 21:52:45 19° WSW 21:53:01 20° W 21:55:10 10° NW
Cosmos 2360 Rocket 3.1 21:47:49 10° NW 21:53:04 39° WSW 21:55:44 25° SSW
Cosmos 1842 3.7 21:56:49 34° ENE 21:56:49 34° ENE 21:59:15 10° NNE
Cosmos 1766 2.6 21:53:26 10° NNW 21:56:40 80° W 21:56:45 78° SW
Cosmos 2322 4.0 21:52:03 10° NNW 21:57:43 62° ENE 22:00:18 32° SE
Cosmos 1975 3.7 21:55:34 10° N 21:58:52 30° ENE 21:59:14 29° E
Cosmos 2034 Rocket 4.3 21:58:35 21° SSW 22:02:58 67° WNW 22:09:18 10° N
Cosmos 2221 3.4 22:03:18 32° E 22:03:35 32° E 22:07:20 10° NNE
Cosmos 372 Rocket 3.9 21:58:32 10° NNW 22:03:40 78° ENE 22:05:24 42° SE
Cosmos 2219 Rocket 2.7 22:00:26 10° NW 22:05:53 49° WSW 22:08:05 32° SSW
Cosmos 1271 Rocket 3.0 22:06:21 42° ENE 22:06:21 42° ENE 22:09:13 10° NNE
SL-08 ROCKET BODY 4.5 22:04:53 10° N 22:11:04 72° E 22:13:38 37° SSE
Cosmos 540 Rocket 4.0 22:07:44 18° SW 22:11:32 57° WNW 22:16:37 10° NNE
Helios 1A 2.9 22:13:19 10° N 22:17:14 71° WNW 22:18:06 50° SW
Cosmos 2279 Rocket 4.0 22:16:40 38° SSE 22:19:12 70° E 22:25:26 10° NNE
RESURS DK-1 2.2 22:16:16 10° NNW 22:20:15 77° ENE 22:20:45 65° ESE
Aureole 1 Rocket 4.2 22:15:55 10° NNW 22:21:44 63° WSW 22:24:34 35° S
Cosmos 1707 3.5 22:23:33 30° WNW 22:23:33 30° WNW 22:26:02 10° N
Cosmos 2322 Rocket 3.9 22:21:04 10° NW 22:25:14 21° W 22:27:37 16° SW
Cosmos 1634 Rocket 4.0 22:22:33 32° SSW 22:25:35 78° W 22:31:50 10° N
Cosmos 1937 Rocket 3.5 22:23:26 10° NNW 22:28:35 70° ENE 22:30:09 44° SE
TSX-5 3.9 22:27:17 10° NW 22:29:55 48° W 22:29:55 48° W
Cosmos 2058 Rocket 3.8 22:30:59 33° SW 22:32:27 47° WNW 22:36:40 10° N
SL-16 R/B 4.4 22:28:32 10° N 22:32:39 20° NE 22:36:44 10° E
Cosmos 468 Rocket 4.3 22:30:14 29° SW 22:32:55 66° WNW 22:38:10 10° NNE
Geosat 4.2 22:27:55 10° NNE 22:32:55 69° WNW 22:35:38 27° SW
CZ-2C R/B 3.6 22:29:01 10° NNE 22:33:30 70° ESE 22:34:15 57° SSE
GP-B 3.9 22:31:36 10° NNE 22:35:40 36° E 22:36:11 35° ESE
BREEZE-M DEB 4.5 22:32:40 10° WSW 22:37:28 68° S 22:52:01 10° E
Meteor 2-9 Rocket 4.1 22:34:19 10° NNW 22:39:45 86° WSW 22:41:24 47° S
Cosmos 44 4.1 22:35:06 10° NW 22:40:07 40° WSW 22:41:01 37° SW
CZ-2C R/B 3.8 22:39:10 23° ESE 22:41:29 33° ENE 22:46:06 10° N
Lacrosse 4 Rocket 3.2 22:42:43 19° E 22:42:43 19° E 22:44:43 10° ENE
Cosmos 2237 Rocket 2.6 22:39:01 10° NNW 22:44:37 56° NE 22:47:09 31° ESE
SeaSat 1 4.4 22:43:16 10° E 22:47:05 23° NE 22:50:55 10° N
Cosmos 2266 Rocket 3.9 22:42:14 10° N 22:48:17 72° ENE 22:50:26 42° SSE
USA 234 3.6 22:42:06 10° ENE 22:48:17 43° SE 22:49:36 39° SSE
Cosmos 1980 3.9 22:43:16 10° NNW 22:48:54 64° ENE 22:51:11 36° SE
Cosmos 1470 3.2 22:46:32 10° NNW 22:49:19 42° WNW 22:49:19 42° WNW
ARIANE 5 R/B 2.6 22:52:41 60° SSW 22:53:19 72° WSW 22:57:48 10° NNW
Intercosmos 24 4.4 22:49:43 10° N 22:53:21 42° ENE 22:53:29 42° E
ALOS 2 2.5 22:54:46 65° S 22:55:22 82° WSW 22:59:48 10° NNW
Cosmos 2227 Rocket 3.5 22:55:50 23° ESE 22:56:30 24° ESE 23:00:57 10° NE
Helios 1B rocket 3.5 22:58:18 27° W 22:58:18 27° W 23:01:08 10° NW
COSMOS 2428 2.9 22:52:36 10° NW 22:58:10 57° WSW 22:59:34 45° SSW
Meteor 2-4 Rocket 4.3 23:00:13 35° SE 23:01:30 41° E 23:06:39 10° NNE
BlueWalker 3 4.2 23:05:22 13° E 23:05:22 13° E 23:05:52 10° ENE
ISS -1.6 23:00:04 10° WNW 23:01:11 19° W 23:01:11 19° W
Cosmos 1898 Rocket 3.9 22:58:38 10° NNW 23:03:35 46° WSW 23:04:34 41° SW
Cosmos 2263 Rocket 3.9 23:03:56 17° ESE 23:04:41 18° E 23:08:15 10° ENE
CZ-2C R/B 3.6 23:02:11 10° NNE 23:07:52 55° E 23:09:26 43° SSE
Meteor 1-11 Rocket 3.7 23:02:57 10° NNW 23:08:38 77° W 23:10:10 49° S
Cosmos 1766 Rocket 3.9 23:05:19 10° N 23:09:32 53° ENE 23:10:08 48° ESE
SAR-Lupe-2 3.9 23:10:57 56° NW 23:10:57 56° NW 23:13:43 10° NNW
Meteor 1-10 Rocket 4.3 23:11:29 44° SSW 23:13:31 81° WNW 23:19:30 10° N
Cosmos 1238 Rocket 3.2 23:14:04 52° E 23:14:12 53° E 23:18:28 10° NNE
PSLV R/B 3.5 23:12:18 10° N 23:16:37 77° WNW 23:17:16 62° SW
Cosmos 1655 Rocket 4.1 23:15:34 10° N 23:21:48 66° ENE 23:24:15 38° SSE
Alouette 2 Rocket 3.7 23:23:33 10° N 23:27:24 67° ENE 23:28:18 52° SE
Meteor 1-27 Rocket 3.7 23:25:50 47° S 23:27:36 87° E 23:33:22 10° NNE
NOSS 0 Rocket 4.3 23:23:32 10° NW 23:29:24 46° WSW 23:30:48 39° SW
Cosmos 841 Rocket 4.3 23:27:23 27° WSW 23:29:45 45° WNW 23:34:49 10° NNE
Cosmos 2297 Rocket 2.1 23:27:59 46° SSW 23:29:47 88° WNW 23:35:28 10° NNE
Meteor 2-10 Rocket 4.0 23:24:36 10° N 23:30:05 59° ENE 23:32:13 37° SE
Cosmos 1975 4.4 23:30:50 10° NW 23:33:29 21° W 23:33:29 21° W
SL-14 R/B 4.4 23:39:49 31° E 23:39:52 31° E 23:43:16 10° NNE
Cosmos 2221 4.0 23:39:35 23° W 23:40:38 26° WNW 23:44:10 10° NNW
Cosmos 158 Rocket 4.1 23:39:40 51° SSE 23:40:51 67° ESE 23:46:10 10° NNE
CZ-4C R/B 4.2 23:39:03 10° NNE 23:41:47 32° E 23:41:47 32° E
MetOp-A 4.0 23:42:38 51° SW 23:43:22 58° WSW 23:47:59 10° NNW
ACS3 Solar Sail 2.5 23:38:22 10° NNE 23:44:00 40° E 23:46:10 30° SE
Landsat 5 3.5 23:44:17 10° NNE 23:48:18 60° ESE 23:48:28 59° ESE
